User: anonymous   Login
Location: Unspecified
(0.0000°N, 0.0000°E)
Time: 19:11:07
(UTC+00:00)
Language:

LEMUR-2-HUBBLE-5 - Orbit

View from above orbital plane
View from above orbital plane
View from above satellite
View from above satellite

Ground track
Ground track

The orbit is defined by the following mean orbital elements,

1 64840U          26145.32020215 +.00000000 +00000-0 +14751-3 0 00009
2 64840  97.7692 260.1047 0006736  63.9620 296.2293 14.94052790    06
Epoch (UTC): 25 May 2026 07:41:05
Eccentricity: 0.0006736
inclination: 97.7692°
perigee height: 581 km
apogee height: 590 km
right ascension of ascending node: 260.1047°
argument of perigee: 63.9620°
revolutions per day: 14.94052790
mean anomaly at epoch: 296.2293°

The dashed part of the orbit path shows where the satellite is in the earth's shadow,  

DLR